Weather History for Meridian NAS, MS

Change the Weather History Date:

Wednesday, November 21, 2012

  Actual Average Record
Temperature  
Mean Temperature 58 °F -  
Max Temperature 73 °F 63 °F 79 °F (1996)
Min Temperature 42 °F 43 °F 27 °F (2000)
Degree Days  
Heating Degree Days 8    
Growing Degree Days 8 (Base 50)    
Moisture  
Dew Point 45 °F    
Average Humidity 76    
Maximum Humidity 100    
Minimum Humidity 39    
Precipitation  
Precipitation 0.00 in - - ()
Sea Level Pressure  
Sea Level Pressure 30.21 in    
Wind  
Wind Speed 2 mph (NNW)    
Max Wind Speed 9 mph    
Max Gust Speed 18 mph    
Visibility 8 miles    
Events      
Averages and records for this station are not official NWS values.
T = Trace of Precipitation, MM = Missing Value Source: NWS Daily Summary

Daily Weather History Graph

Daily Weather History Graph

Search for Another Location

Airport:

Trip Planner

Search our weather history database for the weather conditions in past years. The results will help you decide how hot, cold, wet, or windy it might be!

Date:

Astronomy

Nov. 21, 2012 Rise Set
Actual Time 6:29 AM CST 4:50 PM CST
Civil Twilight 6:03 AM CST 5:16 PM CST
Nautical Twilight 5:33 AM CST 5:46 PM CST
Astronomical Twilight 5:03 AM CST 6:16 PM CST
Moon 12:48 PM CST (11/21) 12:09 AM CST (11/21)
Length of Visible Light 11h 13m
Length of Day
10h 20m
First Quarter, 62% of the Moon is Illuminated
Nov 21
First Quarter
Nov 28
Full
Dec 6
Last Quarter
Dec 13
New
Dec 19
First Quarter

Hourly Weather History & Observations

Time (CST) Temp. Windchill Dew Point Humidity Pressure Visibility Wind Dir Wind Speed Gust Speed Precip Events Conditions
12:56 AM 45.0 °F - 41.0 °F 86% 30.18 in 10.0 mi Calm Calm - N/A   Clear
1:56 AM 44.1 °F 42.5 °F 41.0 °F 89% 30.18 in 10.0 mi West 3.5 mph - N/A   Scattered Clouds
2:56 AM 43.0 °F - 39.9 °F 89% 30.18 in 10.0 mi Calm Calm - N/A   Clear
3:56 AM 44.1 °F 42.5 °F 41.0 °F 89% 30.18 in 10.0 mi WNW 3.5 mph - N/A   Scattered Clouds
4:56 AM 45.0 °F - 41.0 °F 86% 30.19 in 10.0 mi Calm Calm - N/A   Scattered Clouds
5:56 AM 44.1 °F - 39.9 °F 85% 30.20 in 10.0 mi Calm Calm - N/A   Clear
6:14 AM 42.8 °F 41.1 °F 39.2 °F 87% 30.18 in 10.0 mi North 3.5 mph - N/A   Clear
6:56 AM 45.0 °F - 41.0 °F 86% 30.22 in 10.0 mi Calm Calm - N/A   Clear
7:56 AM 51.1 °F - 46.0 °F 83% 30.24 in 9.0 mi Calm Calm - N/A   Clear
8:56 AM 57.0 °F - 46.9 °F 69% 30.24 in 10.0 mi NW 4.6 mph - N/A   Clear
9:56 AM 64.0 °F - 50.0 °F 60% 30.25 in 10.0 mi Variable 6.9 mph - N/A   Clear
10:56 AM 66.9 °F - 50.0 °F 54% 30.24 in 10.0 mi NNW 8.1 mph - N/A   Clear
11:56 AM 71.1 °F - 51.1 °F 49% 30.21 in 10.0 mi Variable 5.8 mph - N/A   Clear
12:56 PM 73.0 °F - 50.0 °F 44% 30.20 in 10.0 mi North 6.9 mph - N/A   Clear
1:56 PM 72.0 °F - 46.9 °F 41% 30.18 in 10.0 mi NW 5.8 mph - N/A   Clear
2:56 PM 73.0 °F - 46.9 °F 39% 30.18 in 10.0 mi NNW 9.2 mph 18.4 mph N/A   Clear
3:56 PM 71.1 °F - 48.0 °F 44% 30.19 in 10.0 mi North 5.8 mph - N/A   Clear
4:56 PM 64.9 °F - 48.0 °F 54% 30.19 in 10.0 mi North 4.6 mph - N/A   Clear
5:56 PM 60.1 °F - 50.0 °F 69% 30.21 in 10.0 mi Calm Calm - N/A   Clear
6:56 PM 57.0 °F - 48.9 °F 74% 30.22 in 10.0 mi Calm Calm - N/A   Clear
7:56 PM 53.1 °F - 48.9 °F 86% 30.24 in 10.0 mi WNW 3.5 mph - N/A   Clear
8:56 PM 48.9 °F - 46.9 °F 93% 30.25 in 8.0 mi Calm Calm - N/A   Clear
9:56 PM 48.0 °F - 45.0 °F 89% 30.25 in 9.0 mi Calm Calm - N/A   Clear
10:56 PM 46.0 °F - 44.1 °F 93% 30.25 in 7.0 mi Calm Calm - N/A   Clear
11:31 PM 44.6 °F - 44.6 °F 100% 30.21 in 1.2 mi Calm Calm - N/A   Clear
11:34 PM 44.6 °F - 42.8 °F 93% 30.21 in 0.8 mi Calm Calm - N/A   Clear
11:41 PM 44.6 °F - 44.6 °F 100% 30.21 in 1.2 mi Calm Calm - N/A   Clear
11:44 PM 44.6 °F - 42.8 °F 93% 30.21 in 3.0 mi Calm Calm - N/A   Clear
11:56 PM 45.0 °F - 43.0 °F 93% 30.24 in 6.0 mi Calm Calm - N/A   Clear